Eastover, SC

1:53 AM EDT on March 24, 2017 (GMT -0400)
McEntire Angs

Weather History for KMMT - January, 2014

Change the Weather History Date:

Thursday, January 9, 2014

  Actual Average Record
Temperature  
Mean Temperature 44 °F -  
Max Temperature 57 °F 55 °F 71 °F (2003)
Min Temperature 30 °F 33 °F 16 °F (2015)
Degree Days  
Heating Degree Days 22    
Moisture  
Dew Point 25 °F    
Average Humidity 46    
Maximum Humidity 67    
Minimum Humidity 27    
Precipitation  
Precipitation 0.00 in - - ()
Sea Level Pressure  
Sea Level Pressure 30.49 in    
Wind  
Wind Speed 3 mph (NE)    
Max Wind Speed 8 mph    
Max Gust Speed -    
Visibility 10 miles    
Events      
Averages and records for this station are not official NWS values.
T = Trace of Precipitation, MM = Missing Value Source: NWS Daily Summary

Daily Weather History Graph

Daily Weather History Graph

Search for Another Location

Airport or City:

Trip Planner

Search our weather history database for the weather conditions in past years. The results will help you decide how hot, cold, wet, or windy it might be!

Date:

Astronomy

Jan. 09, 2014 Rise Set
Actual Time 7:29 AM EST 5:31 PM EST
Civil Twilight 7:01 AM EST 5:59 PM EST
Nautical Twilight 6:30 AM EST 6:30 PM EST
Astronomical Twilight 6:00 AM EST 7:00 PM EST
Moon 12:52 PM EST (1/9) 1:42 AM EST (1/9)
Length of Visible Light 10h 57m
Length of Day
10h 02m
Waxing Gibbous, 66% of the Moon is Illuminated
Jan 9
Waxing Gibbous
Jan 15
Full
Jan 24
Last Quarter
Jan 30
New
Feb 6
First Quarter

Hourly Weather History & Observations

Time (EST) Temp. Windchill Dew Point Humidity Pressure Visibility Wind Dir Wind Speed Gust Speed Precip Events Conditions
12:58 AM 30.4 °F - 15.6 °F 54% 30.50 in 10.0 mi Calm Calm - N/A   Overcast
1:58 AM 31.1 °F - 19.9 °F 63% 30.51 in 10.0 mi Calm Calm - N/A   Overcast
2:58 AM 31.1 °F - 21.2 °F 67% 30.52 in 10.0 mi WNW 1.2 mph - N/A   Overcast
3:58 AM 31.1 °F - 21.2 °F 67% 30.52 in 10.0 mi ESE 2.3 mph - N/A   Overcast
4:58 AM 33.4 °F 29.1 °F 17.1 °F 51% 30.51 in 10.0 mi ENE 4.6 mph - N/A   Overcast
5:58 AM 31.6 °F 28.3 °F 12.7 °F 46% 30.51 in 10.0 mi NNW 3.5 mph - N/A   Partly Cloudy
6:58 AM 30.9 °F - 16.7 °F 56% 30.52 in 10.0 mi Calm Calm - N/A   Mostly Cloudy
7:58 AM 34.7 °F - 11.3 °F 38% 30.53 in 10.0 mi NNE 2.3 mph - N/A   Scattered Clouds
8:58 AM 38.8 °F 33.8 °F 9.5 °F 30% 30.55 in 10.0 mi NE 6.9 mph - N/A   Mostly Cloudy
9:58 AM 43.0 °F 38.8 °F 10.4 °F 27% 30.57 in 10.0 mi ENE 6.9 mph - N/A   Mostly Cloudy
10:58 AM 47.7 °F - 19.0 °F 32% 30.56 in 10.0 mi NE 6.9 mph - N/A   Scattered Clouds
11:58 AM 52.5 °F - 23.4 °F 32% 30.53 in 10.0 mi Variable 4.6 mph - N/A   Mostly Cloudy
12:58 PM 54.7 °F - 23.2 °F 29% 30.48 in 10.0 mi NE 6.9 mph - N/A   Mostly Cloudy
1:58 PM 57.9 °F - 27.5 °F 31% 30.45 in 10.0 mi ENE 8.1 mph - N/A   Mostly Cloudy
2:58 PM 57.4 °F - 30.0 °F 35% 30.43 in 10.0 mi East 8.1 mph - N/A   Mostly Cloudy
3:58 PM 57.0 °F - 31.8 °F 38% 30.44 in 10.0 mi ENE 5.8 mph - N/A   Mostly Cloudy
4:58 PM 56.1 °F - 32.9 °F 41% 30.44 in 10.0 mi NNE 5.8 mph - N/A   Mostly Cloudy
6:25 PM 53.6 °F - 32.0 °F 44% 30.45 in 10.0 mi NNE 3.5 mph - N/A   Overcast
6:58 PM 53.1 °F - 32.0 °F 45% 30.46 in 10.0 mi NE 4.6 mph - N/A   Overcast
7:58 PM 51.8 °F - 32.0 °F 47% 30.46 in 10.0 mi NE 4.6 mph - N/A   Overcast
8:14 PM 51.8 °F - 32.0 °F 47% 30.47 in 10.0 mi NE 6.9 mph - N/A   Overcast
8:41 PM 51.8 °F - 32.0 °F 47% 30.47 in 10.0 mi NE 4.6 mph - N/A   Overcast
8:58 PM 51.1 °F - 32.4 °F 49% 30.46 in 10.0 mi NE 6.9 mph - N/A   Overcast
9:58 PM 50.9 °F - 32.7 °F 50% 30.46 in 10.0 mi NE 3.5 mph - N/A   Overcast
10:58 PM 50.4 °F - 35.4 °F 57% 30.44 in 10.0 mi ENE 6.9 mph - N/A   Overcast
11:58 PM 50.4 °F - 37.9 °F 62% 30.40 in 10.0 mi ENE 8.1 mph - N/A   Overcast